CW7710 Weather Reports


Display with metric or nautical units.
time (UTC)temp
F
wind
direction
speed
MPH
gust
MPH
rain 1hr
in
rain 24hr
in
rain mn
in
humidity
%
barometer
mb
20260507003358 72 325 19.0 0.0 0.00 0.00 0.00 27 1010.9
20260507002339 71 295 17.0 0.0 0.00 0.00 0.00 28 1010.9
20260507001326 72 301 15.0 0.0 0.00 0.00 0.00 28 1010.9
20260507000331 71 283 16.0 0.0 0.00 0.00 0.00 28 1010.9
20260506235339 70 287 17.0 0.0 0.00 0.00 0.00 29 1011.2
20260506234403 71 312 17.0 0.0 0.00 0.00 0.00 28 1011.2
20260506233326 72 302 20.0 0.0 0.00 0.00 0.00 28 1011.0
20260506232351 71 337 19.0 0.0 0.00 0.00 0.00 27 1011.5
20260506231334 71 315 19.0 0.0 0.00 0.00 0.00 28 1011.6
20260506230341 70 319 11.0 0.0 0.00 0.00 0.00 29 1011.8
20260506225345 69 302 7.0 0.0 0.00 0.00 0.00 29 1012.1
20260506224348 69 79 8.0 0.0 0.00 0.00 0.00 30 1012.3
20260506223330 69 92 6.0 0.0 0.00 0.00 0.00 30 1012.3
20260506222338 67 304 9.0 0.0 0.00 0.00 0.00 30 1012.3
20260506221326 67 87 9.0 0.0 0.00 0.00 0.00 31 1012.3
20260506220329 66 102 11.0 0.0 0.00 0.00 0.00 31 1012.5
20260506215333 66 88 13.0 0.0 0.00 0.00 0.00 31 1013.3
20260506214357 66 91 11.0 0.0 0.00 0.00 0.00 32 1013.5
20260506213327 66 92 13.0 0.0 0.00 0.00 0.00 32 1013.7
20260506212354 66 85 8.0 0.0 0.00 0.00 0.00 31 1013.8
20260506211338 65 109 6.0 0.0 0.00 0.00 0.00 31 1013.5
20260506210342 65 98 7.0 0.0 0.00 0.00 0.00 31 1013.7
20260506205351 64 109 11.0 0.0 0.00 0.00 0.00 31 1014.2
20260506204355 63 86 11.0 0.0 0.00 0.00 0.00 31 1014.4
20260506203338 63 95 8.0 0.0 0.00 0.00 0.00 31 1014.6
20260506202343 62 121 10.0 0.0 0.00 0.00 0.00 31 1014.5
20260506201328 62 87 8.0 0.0 0.00 0.00 0.00 31 1014.6
20260506200336 61 69 7.0 0.0 0.00 0.00 0.00 31 1014.7
20260506195341 61 62 8.0 0.0 0.00 0.00 0.00 31 1015.3
20260506194325 60 62 9.0 0.0 0.00 0.00 0.00 31 1015.6
20260506193330 59 111 8.0 0.0 0.00 0.00 0.00 31 1015.2
20260506192338 59 123 7.0 0.0 0.00 0.00 0.00 31 1015.5
20260506191325 58 93 5.0 0.0 0.00 0.00 0.00 32 1015.6
20260506190329 58 94 7.0 0.0 0.00 0.00 0.00 32 1015.9
20260506185333 57 115 8.0 0.0 0.00 0.00 0.00 32 1016.6
20260506184342 56 134 5.0 0.0 0.00 0.00 0.00 33 1016.2
20260506183327 56 121 8.0 0.0 0.00 0.00 0.00 33 1016.4
20260506182331 55 74 4.0 0.0 0.00 0.00 0.00 34 1016.7
20260506181355 54 135 6.0 0.0 0.00 0.00 0.00 36 1017.1
20260506180343 52 67 7.0 0.0 0.00 0.00 0.00 36 1016.5
20260506175347 52 117 8.0 0.0 0.00 0.00 0.00 36 1017.4
20260506174350 52 161 7.0 0.0 0.00 0.00 0.00 37 1017.5
20260506173332 51 118 7.0 0.0 0.00 0.00 0.00 38 1018.0
20260506172337 50 74 5.0 0.0 0.00 0.00 0.00 40 1018.2
20260506171324 50 106 6.0 0.0 0.00 0.00 0.00 41 1018.4
20260506170331 48 161 6.0 0.0 0.00 0.00 0.00 42 1018.0
20260506165355 47 89 7.0 0.0 0.00 0.00 0.00 43 1018.0
20260506164338 47 117 6.0 0.0 0.00 0.00 0.00 44 1018.5
20260506163341 46 143 5.0 0.0 0.00 0.00 0.00 46 1018.7
20260506162329 45 108 6.0 0.0 0.00 0.00 0.00 47 1019.2
20260506161335 45 123 7.0 0.0 0.00 0.00 0.00 49 1019.4
20260506160340 44 75 6.0 0.0 0.00 0.00 0.00 51 1019.0
20260506155344 43 101 5.0 0.0 0.00 0.00 0.00 54 1019.4
20260506154332 41 123 4.0 0.0 0.00 0.00 0.00 56 1019.9
20260506153336 40 107 3.0 0.0 0.00 0.00 0.00 59 1020.2
20260506152341 39 93 4.0 0.0 0.00 0.00 0.00 61 1019.6
20260506151328 39 83 4.0 0.0 0.00 0.00 0.00 63 1019.7
20260506150336 38 86 5.0 0.0 0.00 0.00 0.00 66 1019.8
20260506145327 37 92 4.0 0.0 0.00 0.00 0.00 68 1020.4
20260506144351 35 93 5.0 0.0 0.00 0.00 0.00 70 1020.0
20260506143334 34 81 6.0 0.0 0.00 0.00 0.00 72 1020.1
20260506142341 33 82 5.0 0.0 0.00 0.00 0.00 74 1020.5
20260506141325 33 97 5.0 0.0 0.00 0.00 0.00 76 1020.7
20260506140328 32 115 4.0 0.0 0.00 0.00 0.00 77 1019.7
20260506135332 30 114 4.0 0.0 0.00 0.00 0.00 78 1020.1
20260506134341 29 90 5.0 0.0 0.00 0.00 0.00 79 1020.5
20260506133328 29 94 3.0 0.0 0.00 0.00 0.00 80 1020.6
20260506132353 27 96 3.0 0.0 0.00 0.00 0.00 80 1020.8
20260506131335 26 100 1.0 0.0 0.00 0.00 0.00 80 1020.7
20260506130339 25 100 1.0 0.0 0.00 0.00 0.00 79 1020.2
20260506125328 24 100 2.0 0.0 0.00 0.00 0.00 80 1020.2
20260506124352 24 98 1.0 0.0 0.00 0.00 0.00 79 1020.1
20260506123338 23 98 1.0 0.0 0.00 0.00 0.00 79 1020.0
20260506122341 21 99 2.0 0.0 0.00 0.00 0.00 78 1020.4
20260506121329 22 170 2.0 0.0 0.00 0.00 0.00 78 1020.4
20260506120333 24 107 3.0 0.0 0.00 0.00 0.00 78 1020.1
20260506115326 25 99 4.0 0.0 0.00 0.00 0.00 78 1020.6
20260506114330 25 123 3.0 0.0 0.00 0.00 0.00 78 1020.6
20260506113355 25 129 4.0 0.0 0.00 0.00 0.00 78 1020.6
20260506112341 25 122 4.0 0.0 0.00 0.00 0.00 77 1020.6
20260506111325 24 125 3.0 0.0 0.00 0.00 0.00 77 1020.7
20260506110330 23 105 2.0 0.0 0.00 0.00 0.00 76 1020.6
20260506105355 25 105 2.0 0.0 0.00 0.00 0.00 76 1020.0
20260506104359 26 101 3.0 0.0 0.00 0.00 0.00 76 1020.1
20260506103326 26 109 2.0 0.0 0.00 0.00 0.00 75 1020.0
20260506102351 27 102 2.0 0.0 0.00 0.00 0.00 76 1020.6
20260506101354 27 101 3.0 0.0 0.00 0.00 0.00 75 1020.6
20260506100338 27 119 3.0 0.0 0.00 0.00 0.00 74 1020.0
20260506095326 26 105 1.0 0.0 0.00 0.00 0.00 74 1020.1
20260506094334 26 105 2.0 0.0 0.00 0.00 0.00 74 1020.1
20260506093338 25 120 3.0 0.0 0.00 0.00 0.00 73 1020.0
20260506092340 25 162 3.0 0.0 0.00 0.00 0.00 73 1020.0
20260506091344 25 105 1.0 0.0 0.00 0.00 0.00 72 1020.0
20260506090352 25 151 2.0 0.0 0.00 0.00 0.00 71 1020.0
20260506085335 25 227 1.0 0.0 0.00 0.00 0.00 70 1020.3
20260506084340 27 228 1.0 0.0 0.00 0.00 0.00 70 1020.0
20260506083324 27 248 1.0 0.0 0.00 0.00 0.00 69 1020.0
20260506082333 28 248 0.0 0.0 0.00 0.00 0.00 69 1020.5
20260506081338 28 248 0.0 0.0 0.00 0.00 0.00 69 1020.6
20260506080402 28 248 2.0 0.0 0.00 0.00 0.00 69 1020.5
20260506073337 29 245 5.0 0.0 0.00 0.00 0.00 67 1020.0
20260506072343 29 200 5.0 0.0 0.00 0.00 0.00 66 1020.1
20260506071327 31 282 5.0 0.0 0.00 0.00 0.00 65 1020.6
20260506070331 31 275 4.0 0.0 0.00 0.00 0.00 65 1020.6
20260506062332 37 342 3.0 0.0 0.00 0.00 0.00 54 1020.4
20260506061340 39 349 4.0 0.0 0.00 0.00 0.00 54 1020.1
20260506060327 38 348 3.0 0.0 0.00 0.00 0.00 56 1020.1
20260506051352 37 338 4.0 0.0 0.00 0.00 0.00 57 1020.5
20260506050355 38 255 1.0 0.0 0.00 0.00 0.00 56 1020.5
20260506044326 37 205 1.0 0.0 0.00 0.00 0.00 56 1020.6
20260506043330 37 340 3.0 0.0 0.00 0.00 0.00 55 1020.5
20260506042334 37 319 3.0 0.0 0.00 0.00 0.00 54 1020.5
20260506041339 37 323 1.0 0.0 0.00 0.00 0.00 55 1020.5
20260506040351 36 273 3.0 0.0 0.00 0.00 0.00 54 1020.5
20260506035334 38 194 4.0 0.0 0.00 0.00 0.00 52 1020.6
20260506034338 38 151 3.0 0.0 0.00 0.00 0.00 52 1020.3
20260506033343 39 94 4.0 0.0 0.00 0.00 0.00 51 1020.2
20260506032332 39 50 7.0 0.0 0.00 0.00 0.00 51 1019.9
20260506031336 39 58 8.0 0.0 0.00 0.00 0.00 51 1019.7
20260506030339 40 58 9.0 0.0 0.00 0.00 0.00 50 1019.3
20260506025343 41 69 7.0 0.0 0.00 0.00 0.00 50 1019.6
20260506024331 42 58 11.0 0.0 0.00 0.00 0.00 50 1019.4
20260506023335 43 71 2.0 0.0 0.00 0.00 0.00 50 1018.9
20260506022358 44 103 2.0 0.0 0.00 0.00 0.00 48 1018.8
20260506021342 45 157 3.0 0.0 0.00 0.00 0.00 45 1019.1
20260506020326 46 11 8.0 0.0 0.00 0.00 0.00 40 1019.0
20260506015334 46 29 11.0 0.0 0.00 0.00 0.00 41 1018.5
20260506014338 46 342 15.0 0.0 0.00 0.00 0.00 41 1018.2
20260506013343 47 353 12.0 0.0 0.00 0.00 0.00 40 1018.1
20260506012327 47 15 12.0 0.0 0.00 0.00 0.00 41 1017.8
20260506011334 47 17 14.0 0.0 0.00 0.00 0.00 41 1017.8
20260506010358 47 13 11.0 0.0 0.00 0.00 0.00 41 1018.7
20260506005341 47 349 12.0 0.0 0.00 0.00 0.00 41 1017.9
20260506004405 47 7 14.0 0.0 0.00 0.00 0.00 40 1017.7